Temp
61 61 61 60 60 60 60 60 60 60 61 60 60 61 60 60 60 67 68 80 80 74 74 84 87 86 86 84 87 88 72 69 73 75 80 92 90 95 98 92 94 94 93 97 100
61 61 60 60 60 60 60 60 60 60 60 60 60 60 60 60 63 69 80 74 76 74 83 82 82 85 80 80 82 79 69 72 83 85 84 89 89 91 89 88 88 90 95 98 100
60 61 60 60 60 60 60 59 60 60 60 60 60 60 60 61 67 78 77 73 73 76 85 89 89 85 78 82 81 79 71 80 83 88 87 84 85 90 86 83 88 87 92 96 97
60 60 60 60 60 60 59 59 59 60 60 60 60 60 60 65 65 82 74 73 73 84 84 85 85 80 76 75 83 75 80 82 84 88 84 82 87 83 84 85 93 93 94 95 94
59 59 59 59 59 60 59 59 59 59 59 59 59 60 63 68 75 81 73 74 82 81 82 83 80 80 75 80 82 77 80 83 86 86 85 86 82 83 84 90 92 92 92 91 91
58 59 59 59 59 59 59 58 58 58 58 59 60 60 63 65 91 86 87 83 86 83 84 87 84 87 82 81 80 83 82 82 84 84 84 81 81 83 85 90 89 89 87 89 89
58 58 58 58 58 58 59 59 58 58 58 59 60 66 67 73 93 90 89 86 89 88 84 89 91 85 84 78 86 84 77 80 80 82 81 84 76 77 86 88 86 87 88 89 89
58 58 58 58 58 58 58 58 58 58 59 60 61 67 66 91 95 92 92 89 92 93 91 93 91 84 82 85 82 76 76 67 78 81 82 80 67 81 88 86 84 85 87 88 90
58 57 57 58 58 58 57 57 58 59 60 60 63 67 69 81 83 90 92 86 89 90 89 91 86 79 80 73 70 72 64 68 73 84 83 79 71 81 87 84 82 84 85 86 87
58 57 57 57 57 57 56 57 60 58 60 71 73 67 76 78 86 88 92 90 84 83 81 79 77 72 73 70 58 64 67 70 71 80 80 75 74 80 85 84 81 82 84 85 86
58 57 57 57 57 56 58 62 61 61 64 66 72 73 80 87 89 85 89 85 84 78 68 75 68 64 70 73 74 73 71 69 75 81 77 74 74 78 82 84 82 83 84 84 85
57 57 57 56 56 56 59 67 76 78 65 72 71 75 81 86 76 82 89 76 74 67 73 69 64 73 77 77 74 72 68 67 73 78 75 73 72 77 80 81 83 83 83 84 85
56 56 56 56 56 57 66 74 86 85 67 73 78 74 76 80 72 75 82 77 72 67 69 65 71 78 75 72 69 70 66 66 67 73 76 73 67 71 78 81 83 84 85 85 85
56 56 56 55 55 75 72 82 88 86 58 66 71 76 79 78 69 81 84 76 71 67 70 69 77 74 72 69 71 63 74 71 69 65 58 72 56 68 75 77 80 82 83 84 85
55 56 55 55 60 70 82 88 89 79 44 70 73 85 81 72 74 73 84 76 65 66 68 63 68 68 67 69 74 67 75 71 70 65 63 64 59 65 74 72 77 81 83 83 83
55 56 55 64 61 72 82 85 79 57 46 67 74 71 70 72 73 77 75 78 76 68 69 66 75 70 68 71 72 76 70 69 68 64 52 60 60 61 68 73 77 82 83 84 82
55 56 55 68 71 84 84 76 57 49 72 66 68 71 70 68 71 70 67 65 61 56 56 65 67 73 74 66 71 69 60 48 47 50 49 64 60 64 74 78 79 78 80 81 81
54 53 61 71 81 82 76 64 48 63 65 72 71 71 66 70 70 70 66 63 68 65 60 56 52 67 73 68 64 65 62 52 41 45 52 63 55 62 76 79 80 82 81 80 79
52 71 72 79 81 79 67 55 55 62 68 66 68 64 65 68 68 67 66 64 67 67 55 54 56 71 72 73 71 63 58 66 53 55 48 54 61 70 75 74 78 78 78 75 76
59 69 79 83 81 74 62 55 64 69 69 68 59 66 57 60 59 62 60 66 64 69 69 61 51 65 68 71 71 66 68 51 53 37 38 51 55 56 63 66 68 71 73 75 76
61 66 78 85 79 68 57 63 67 72 69 64 62 61 62 59 59 57 57 64 66 66 68 62 55 54 62 59 58 60 58 58 56 50 37 39 49 68 63 67 68 71 74 75 76
66 61 81 82 63 66 62 65 55 68 70 67 67 64 61 60 57 57 57 61 65 64 57 58 53 46 52 63 66 63 58 56 43 42 48 44 44 67 67 70 70 70 73 76 76
61 69 80 77 55 57 64 67 68 65 65 65 63 64 64 57 51 58 58 64 63 61 55 56 48 42 49 58 60 55 59 59 53 48 42 39 46 68 67 61 64 66 68 72 73
61 60 70 72 71 62 62 62 63 67 64 65 62 64 60 57 60 54 56 60 64 61 56 55 51 43 37 47 52 47 52 55 50 39 45 48 52 59 62 60 64 67 67 70 70
62 61 62 58 62 62 62 62 60 59 65 65 60 60 57 50 55 54 57 60 60 56 57 53 40 45 49 51 51 51 52 53 50 51 44 51 52 58 62 64 66 69 70 69 70
57 58 62 61 62 60 55 59 58 59 58 57 55 59 58 50 51 47 51 53 51 58 51 51 39 43 43 50 50 48 53 54 55 56 55 55 55 65 67 69 68 69 68 68 69
62 66 59 56 60 58 60 59 57 58 60 62 58 56 54 56 57 58 60 58 55 51 48 43 39 42 37 49 49 41 52 54 56 59 58 52 59 66 64 66 65 66 67 68 68
MSLP
1016.84 1016.42 1015.97 1015.69 1015.44 1015.15 1014.87 1014.68 1014.60 1014.41 1014.24 1014.12 1013.89 1013.69 1013.57 1013.30 1012.74 1012.12 1010.15 1008.07 1007.85 1008.07 1008.15 1007.88 1006.94 1006.83 1006.78 1006.01 1005.41 1004.83 1004.17 1002.84 1001.97 1001.05 999.95 998.78 998.31 998.60 999.08 999.80 999.85 1000.61 1000.97 1001.14 1001.61
1016.83 1016.36 1015.99 1015.62 1015.34 1015.10 1014.83 1014.55 1014.40 1014.30 1014.15 1013.95 1013.74 1013.59 1013.50 1013.27 1012.30 1009.73 1007.37 1007.45 1007.56 1007.94 1007.83 1007.13 1006.16 1006.06 1005.82 1005.35 1004.80 1004.15 1003.77 1002.62 1001.50 1000.85 1000.15 999.33 999.01 999.05 999.50 1000.00 1000.43 1001.02 1001.35 1001.30 1001.65
1016.86 1016.38 1015.99 1015.58 1015.25 1014.98 1014.79 1014.59 1014.32 1014.13 1013.95 1013.77 1013.56 1013.38 1013.29 1013.01 1010.62 1006.28 1005.41 1006.68 1007.29 1007.78 1007.41 1006.10 1005.24 1005.07 1004.95 1004.42 1004.00 1003.79 1003.02 1002.11 1001.59 1000.76 1000.41 1000.63 1000.21 1000.17 1000.17 1000.18 1000.49 1000.91 1001.13 1001.16 1001.29
1016.89 1016.40 1015.95 1015.57 1015.14 1014.81 1014.59 1014.41 1014.23 1013.96 1013.76 1013.59 1013.42 1013.25 1012.97 1012.41 1008.13 1005.89 1006.29 1006.79 1007.21 1007.30 1007.04 1005.87 1004.93 1004.29 1004.17 1003.65 1003.20 1003.01 1002.63 1002.15 1001.57 1000.81 1001.00 1001.31 1001.22 1001.09 1001.29 1001.20 1001.03 1001.18 1001.30 1001.19 1001.11
1016.93 1016.40 1015.90 1015.46 1015.04 1014.62 1014.36 1014.16 1014.05 1013.90 1013.69 1013.55 1013.43 1013.22 1012.62 1010.09 1006.28 1006.17 1006.53 1006.92 1007.09 1007.18 1006.18 1005.09 1004.46 1003.89 1003.31 1002.78 1002.41 1002.06 1002.09 1001.84 1001.39 1001.18 1001.09 1001.55 1001.45 1001.33 1001.31 1001.38 1001.52 1001.71 1001.71 1001.56 1001.59
1016.83 1016.45 1015.96 1015.40 1014.93 1014.52 1014.11 1013.92 1013.78 1013.78 1013.70 1013.48 1013.28 1013.16 1011.81 1007.72 1004.62 1005.65 1005.86 1006.44 1006.12 1006.16 1005.29 1004.49 1003.64 1003.20 1002.72 1002.09 1001.50 1001.38 1001.44 1001.30 1001.34 1000.99 1001.39 1001.32 1001.41 1001.51 1001.39 1001.31 1001.35 1001.58 1002.03 1001.96 1001.85
1016.73 1016.18 1015.79 1015.44 1014.82 1014.34 1014.00 1013.65 1013.43 1013.31 1013.31 1013.27 1013.11 1012.54 1009.97 1006.07 1004.15 1004.78 1005.25 1005.47 1005.33 1004.94 1004.40 1004.04 1003.36 1002.94 1002.65 1002.23 1001.54 1001.18 1001.09 1001.22 1001.10 1000.91 1001.09 1001.35 1000.91 1000.75 1000.98 1000.82 1000.77 1001.29 1001.48 1001.72 1001.71
1016.79 1016.19 1015.56 1015.03 1014.63 1014.13 1013.56 1013.15 1012.97 1012.91 1012.89 1012.90 1012.87 1011.80 1007.80 1004.39 1004.08 1004.21 1004.50 1004.57 1004.49 1004.43 1003.99 1003.59 1003.57 1003.57 1002.85 1002.34 1001.57 1001.49 1001.35 1000.98 1000.59 1000.35 1000.52 1001.02 1000.23 1000.19 999.73 999.69 1000.29 1000.90 1001.12 1001.11 1001.23
1016.71 1016.19 1015.52 1014.87 1014.30 1013.73 1013.21 1012.57 1012.35 1012.46 1012.55 1012.65 1012.25 1010.58 1006.32 1004.82 1004.38 1004.20 1004.01 1003.88 1004.01 1004.16 1004.29 1004.09 1004.14 1003.81 1003.23 1002.69 1001.99 1001.59 1000.97 1000.11 999.47 998.83 998.87 999.69 999.80 999.75 999.52 999.77 1000.18 1000.51 1000.69 1000.99 1001.02
1016.43 1016.07 1015.49 1014.76 1014.19 1013.62 1013.01 1012.47 1011.77 1012.24 1012.17 1011.33 1010.34 1009.00 1005.45 1003.61 1003.19 1003.80 1003.81 1003.75 1003.81 1004.16 1004.28 1004.43 1004.22 1003.63 1003.03 1002.19 1001.31 1000.60 999.97 999.43 998.71 998.13 998.51 999.29 999.45 999.56 999.31 999.46 999.91 1000.43 1000.55 1000.74 1000.83
1015.90 1015.69 1015.34 1014.69 1014.10 1013.74 1013.01 1012.32 1011.79 1010.89 1010.15 1007.94 1006.51 1005.21 1003.35 1003.04 1003.08 1003.33 1003.52 1003.73 1003.65 1004.04 1003.95 1003.80 1003.57 1002.61 1001.99 1001.52 1001.25 1000.49 999.70 999.08 998.44 998.16 998.41 998.80 999.15 999.09 999.00 999.00 999.17 999.46 999.80 1000.05 1000.40
1015.57 1014.99 1014.73 1014.29 1013.74 1013.53 1013.31 1010.42 1007.32 1006.71 1006.35 1005.78 1005.45 1004.65 1003.69 1003.07 1002.93 1002.99 1003.24 1003.65 1003.76 1003.59 1003.65 1003.53 1002.53 1002.31 1001.65 1001.13 1000.77 1000.28 1000.07 999.79 999.57 999.07 999.15 999.09 999.10 999.29 999.16 998.93 998.75 998.86 999.25 999.51 999.89
1015.13 1014.64 1014.01 1013.44 1012.91 1012.25 1010.35 1007.95 1006.65 1006.18 1005.59 1003.35 1002.96 1003.57 1003.43 1003.63 1003.24 1002.79 1003.22 1003.40 1003.24 1003.35 1002.89 1002.47 1001.67 1001.24 1001.27 1001.20 1000.79 1000.38 1000.42 1000.42 1000.16 999.88 999.48 999.21 999.11 999.27 998.80 998.49 998.30 998.20 998.54 999.00 999.36
1014.54 1014.16 1013.63 1012.86 1012.09 1008.94 1007.89 1006.68 1005.83 1005.72 1004.83 1002.22 1002.14 1002.03 1002.43 1003.25 1003.30 1003.02 1003.00 1003.55 1003.33 1002.91 1002.57 1002.05 1001.45 1001.01 1000.85 1000.99 1001.15 1000.51 1000.42 1000.65 1000.63 1000.55 999.89 999.63 998.53 998.17 997.49 996.93 996.86 997.34 997.82 998.45 999.12
1014.27 1013.63 1013.31 1013.36 1011.18 1008.11 1005.67 1005.55 1005.36 1005.71 1003.49 1001.61 1001.38 1001.77 1001.86 1002.75 1002.15 1002.68 1002.77 1003.67 1003.49 1003.35 1003.14 1002.34 1001.84 1001.43 1000.87 1000.80 1000.67 1000.61 1000.69 1000.61 1000.55 1000.36 1000.23 999.81 999.00 997.95 997.23 996.51 996.20 996.22 996.79 997.74 998.80
1013.83 1013.17 1012.81 1011.22 1011.06 1007.95 1006.52 1006.09 1005.93 1004.72 1001.52 1000.18 1000.68 1001.19 1001.78 1002.07 1001.62 1001.95 1002.69 1003.48 1003.63 1003.56 1003.24 1002.87 1002.51 1002.47 1001.87 1001.31 1001.21 1000.75 1000.92 1001.04 1001.20 1001.16 1000.21 1000.01 999.08 997.53 996.59 995.63 995.20 994.97 995.83 997.13 998.61
1013.13 1012.45 1012.55 1010.55 1007.83 1006.45 1006.29 1005.97 1004.83 1002.67 1000.39 999.83 999.78 1000.56 1000.69 1001.01 1001.14 1001.94 1002.56 1002.97 1003.07 1003.17 1002.85 1002.37 1001.93 1001.84 1001.91 1001.83 1001.66 1001.54 1002.15 1002.09 1001.66 1000.99 999.67 999.29 998.06 996.58 995.73 995.16 995.54 995.69 996.73 997.67 999.07
1012.41 1011.45 1009.66 1009.11 1007.16 1006.78 1006.37 1005.46 1003.57 1001.34 1000.34 1000.43 999.98 999.89 999.90 1000.25 1000.55 1001.05 1001.84 1002.10 1002.70 1002.81 1002.41 1001.87 1001.52 1001.05 1001.23 1001.33 1001.21 1001.30 1001.60 1001.59 1001.19 1000.89 999.80 999.01 997.57 997.05 995.97 996.33 996.50 996.43 997.14 998.15 999.35
1011.74 1009.13 1008.17 1006.80 1006.90 1006.79 1006.19 1004.20 1002.49 1001.61 1001.43 1001.33 1000.91 1000.14 999.89 1000.31 1000.90 1001.09 1001.36 1001.90 1002.14 1002.99 1003.18 1002.46 1001.58 1001.19 1001.59 1001.42 1001.49 1001.29 1001.25 1001.89 1002.18 1002.52 1001.82 1000.72 998.84 997.46 996.59 996.25 996.16 996.97 997.75 998.73 999.74
1011.86 1008.87 1006.07 1006.18 1006.53 1006.44 1005.62 1003.34 1001.98 1002.03 1002.21 1002.13 1001.49 1000.73 1001.25 1001.63 1002.34 1002.14 1002.64 1002.83 1002.92 1003.19 1003.52 1003.40 1002.82 1002.58 1002.19 1002.02 1001.77 1001.76 1002.42 1003.08 1004.00 1004.14 1002.67 1000.75 999.25 998.12 997.78 998.13 998.57 998.55 998.66 999.09 999.83
1011.21 1007.66 1005.87 1005.63 1006.23 1005.69 1004.13 1002.25 1001.97 1002.60 1003.13 1002.79 1002.26 1002.17 1002.32 1002.83 1003.29 1003.56 1003.97 1003.69 1004.11 1004.18 1004.23 1004.82 1004.83 1004.56 1004.02 1003.25 1002.68 1002.46 1002.67 1003.46 1004.45 1004.91 1004.45 1002.62 1000.49 998.99 999.66 999.24 999.21 999.41 999.35 999.67 999.91
1009.42 1006.49 1005.54 1005.66 1005.76 1004.40 1003.17 1002.91 1002.88 1002.94 1003.25 1003.21 1003.28 1003.48 1003.62 1004.07 1004.11 1004.13 1004.12 1004.42 1005.47 1005.78 1005.81 1006.71 1006.42 1005.77 1004.97 1004.09 1003.61 1003.49 1003.52 1004.19 1005.04 1005.09 1004.57 1003.75 1001.74 1000.73 1000.18 999.97 1000.08 1000.03 999.76 999.91 1000.02
1009.72 1006.18 1005.23 1005.59 1004.91 1004.11 1003.53 1002.68 1003.09 1003.41 1003.69 1003.63 1003.75 1004.50 1005.03 1005.44 1005.59 1004.94 1005.19 1005.67 1006.43 1006.58 1007.15 1007.97 1007.75 1007.02 1005.21 1003.80 1004.47 1004.27 1004.13 1004.15 1005.09 1005.54 1004.69 1004.10 1001.22 1001.03 1000.85 1001.34 1001.22 1001.07 1000.94 1000.57 1000.64
1010.36 1006.19 1004.87 1005.22 1004.79 1004.63 1003.83 1003.33 1003.13 1004.22 1004.72 1004.80 1005.08 1005.47 1005.79 1005.87 1006.22 1006.13 1005.93 1006.50 1006.86 1007.30 1008.52 1009.01 1008.93 1008.79 1007.99 1006.34 1006.25 1006.04 1005.50 1005.30 1005.72 1005.50 1004.44 1002.95 1001.80 1001.33 1000.91 1001.16 1001.61 1001.03 1001.30 1000.99 1001.02
1010.17 1007.27 1006.84 1005.22 1005.08 1005.40 1005.09 1004.65 1004.23 1004.31 1005.07 1005.59 1005.52 1005.79 1006.45 1006.95 1006.67 1006.62 1006.87 1006.60 1007.25 1008.33 1008.87 1009.67 1009.95 1009.90 1008.97 1008.06 1007.15 1005.93 1005.16 1004.80 1004.70 1004.34 1003.78 1002.51 1001.62 1001.12 1000.83 1000.63 1000.41 1000.29 1000.20 1000.28 1000.43
1010.19 1008.77 1007.91 1006.93 1006.61 1006.27 1005.76 1005.06 1005.15 1005.36 1006.29 1006.11 1006.67 1006.78 1007.29 1008.02 1008.36 1008.05 1007.97 1007.87 1007.93 1008.04 1009.47 1010.27 1010.59 1010.43 1009.24 1008.42 1007.09 1005.50 1004.67 1003.88 1003.08 1002.63 1002.08 1001.65 1000.63 1000.62 1000.19 1000.05 999.77 999.59 999.85 1000.05 1000.21
1011.51 1009.92 1009.43 1007.84 1006.83 1006.65 1005.69 1005.93 1006.43 1007.09 1007.04 1007.01 1007.45 1007.86 1008.07 1008.25 1008.63 1008.75 1008.54 1008.40 1008.81 1009.17 1009.57 1010.63 1011.16 1010.53 1009.03 1007.97 1006.42 1004.68 1002.92 1002.19 1001.73 1001.39 1001.11 1000.47 1000.13 999.97 999.75 999.68 999.78 999.91 1000.11 1000.17 1000.30
Wind_Speed
18 16 15 13 12 12 11 11 11 11 11 12 12 13 13 14 17 15 14 7 7 8 2 11 11 14 14 15 17 12 12 14 18 19 20 20 11 9 11 13 7 2 10 5 7
19 19 15 14 13 12 11 11 11 11 12 12 11 12 12 13 15 19 17 11 9 5 11 14 12 13 14 14 14 15 10 19 17 18 14 14 8 14 5 17 10 10 12 14 10
19 19 18 16 14 12 12 11 11 11 11 11 11 11 12 12 12 6 9 16 11 9 16 18 15 14 15 16 17 15 17 17 18 20 3 12 14 6 11 12 10 11 14 15 15
18 18 18 17 17 13 12 11 11 11 11 11 11 11 12 11 3 7 11 11 10 10 14 18 14 14 15 17 17 19 21 17 20 17 2 10 13 12 12 15 13 12 14 11 12
17 18 18 17 16 15 12 11 11 11 10 11 11 11 9 10 11 11 12 9 10 12 16 15 15 15 17 17 17 18 18 18 18 16 12 10 14 14 16 13 11 15 14 13 12
17 17 18 17 17 15 14 12 11 10 10 10 10 10 8 13 11 14 13 12 13 14 15 16 13 14 15 18 18 14 19 15 18 14 14 15 16 16 17 16 14 12 12 15 10
17 17 16 16 17 17 13 13 10 10 10 10 9 8 11 18 1 15 13 12 13 16 13 15 16 13 9 13 18 13 17 12 15 17 16 16 19 18 16 17 13 14 13 13 13
16 17 18 18 17 17 19 16 12 10 10 10 9 9 9 6 12 11 14 15 15 11 15 9 4 11 16 14 7 12 14 17 19 22 21 18 17 18 18 21 18 11 16 12 13
16 16 17 19 19 20 21 14 11 9 9 9 8 10 10 3 9 13 14 14 9 8 6 6 5 12 14 13 13 14 15 20 20 20 17 18 15 18 17 3 6 11 10 13 9
16 16 17 19 19 18 21 12 7 5 7 10 11 10 11 11 11 13 14 13 10 10 10 10 9 13 14 13 13 18 20 17 16 14 14 13 14 15 13 14 11 13 13 11 12
18 16 17 18 19 15 13 5 5 6 8 10 4 11 6 4 2 11 13 12 12 9 13 14 12 14 17 17 18 20 21 16 15 8 13 13 12 15 13 16 15 15 12 12 13
21 19 19 19 19 15 10 9 11 6 9 21 21 18 18 6 6 11 16 14 15 15 15 15 16 16 17 17 17 17 17 18 16 18 14 15 17 16 18 18 16 13 13 12 12
20 20 20 22 19 13 15 17 14 11 8 15 20 20 15 12 10 9 15 16 14 16 16 16 16 19 14 15 18 16 14 16 18 17 18 15 16 17 19 19 19 16 14 13 11
19 20 21 21 12 9 14 21 17 6 7 10 10 8 11 9 9 15 13 13 15 16 16 16 18 19 12 12 13 18 16 17 17 16 14 15 15 18 16 19 18 20 15 11 10
21 20 20 10 13 8 8 3 7 3 6 11 11 10 15 14 10 16 15 14 16 16 11 14 15 18 15 17 17 15 15 16 17 15 17 18 14 14 17 17 18 16 17 14 7
24 21 20 4 7 15 14 5 5 7 5 9 10 12 13 16 7 17 15 15 15 17 16 17 17 15 14 15 17 14 13 14 15 14 16 18 19 16 17 18 17 15 16 12 13
26 25 14 10 7 7 10 7 7 6 10 5 9 15 16 13 13 11 15 15 16 12 16 19 20 18 16 14 16 9 5 8 12 14 15 20 18 16 17 7 4 8 9 10 10
28 30 8 10 9 5 7 9 7 12 5 4 5 4 10 12 11 13 17 14 19 18 16 14 12 16 17 21 18 18 17 12 20 15 17 19 16 11 6 6 9 5 8 9 9
31 8 7 6 11 5 9 10 4 6 9 9 10 9 10 4 4 6 9 7 9 4 12 14 17 11 10 15 15 14 15 11 11 16 15 15 22 20 18 13 12 9 7 8 4
9 11 3 6 5 5 8 13 5 4 5 6 11 7 5 4 4 3 1 1 5 7 5 12 15 12 15 13 16 15 12 8 5 7 17 15 13 11 10 9 2 8 10 7 9
5 6 7 5 5 7 10 4 4 10 5 6 9 9 9 4 5 2 5 6 10 10 9 9 8 11 15 14 16 13 14 13 14 13 6 10 9 3 6 8 2 6 6 6 7
7 4 7 5 7 7 9 9 4 5 0 5 4 6 7 7 5 6 5 4 3 8 8 8 4 8 16 22 18 17 19 13 10 9 12 11 9 15 12 9 8 12 9 8 9
6 7 6 6 6 4 10 3 4 3 4 5 4 3 7 7 5 5 2 7 7 4 4 2 2 7 10 14 6 9 14 13 13 8 17 14 12 11 7 16 23 16 16 11 15
6 4 6 7 9 8 9 3 4 8 4 4 5 4 8 8 7 5 6 3 2 3 8 3 9 10 10 19 11 12 13 15 10 6 11 18 22 18 15 7 13 14 12 13 14
6 2 4 3 3 7 4 8 5 3 4 4 4 3 6 5 8 10 13 9 4 11 6 3 7 11 16 20 22 24 24 20 22 22 21 18 24 20 18 17 14 13 15 15 17
5 6 7 9 5 6 4 5 3 4 1 3 3 6 4 7 12 15 16 13 10 6 6 4 3 9 15 18 21 26 25 26 27 24 25 26 26 19 18 16 19 12 8 9 14
8 6 4 7 6 6 1 5 4 3 6 3 4 5 8 8 6 10 14 14 12 11 11 6 3 7 14 16 18 16 19 23 23 22 23 21 20 13 14 10 11 9 9 12 15
Wind_Direction
349 346 343 337 325 316 311 304 299 296 295 298 301 304 308 308 303 247 246 223 224 150 129 269 219 220 227 247 229 239 248 246 247 270 278 274 279 221 227 253 280 110 257 329 96
352 351 347 343 336 325 314 305 299 298 294 294 296 302 306 314 289 264 242 161 130 156 225 233 216 215 215 217 236 219 225 249 261 242 261 307 277 282 213 253 228 253 275 283 261
351 354 351 350 340 332 319 307 300 296 292 291 294 301 306 309 272 259 243 152 151 189 232 242 243 205 228 229 220 221 242 245 241 272 281 304 305 305 275 271 241 258 264 236 250
348 349 351 349 350 337 325 314 305 298 295 296 297 301 307 279 276 82 118 133 147 212 219 242 240 229 229 228 229 227 241 248 268 275 190 260 275 280 264 267 275 287 284 291 271
348 346 346 346 343 343 327 315 305 298 293 298 299 303 287 229 254 134 135 137 175 201 215 229 224 232 227 234 233 232 249 248 265 265 276 261 267 261 251 256 266 261 284 277 279
341 344 342 339 338 335 334 314 303 294 289 289 296 306 253 258 98 140 161 164 176 200 221 234 228 231 251 242 253 233 247 252 265 249 255 250 253 252 250 254 236 242 241 262 264
335 335 337 335 333 330 323 317 291 283 281 281 292 275 264 246 212 151 177 191 216 206 227 230 250 280 244 273 266 262 260 257 253 262 245 248 251 251 254 258 223 232 228 240 233
332 330 330 330 329 325 322 303 278 271 268 272 283 271 266 239 243 240 193 206 212 219 251 252 253 280 268 283 266 271 246 257 245 230 227 232 256 257 255 222 226 232 254 252 251
328 325 324 325 327 328 328 308 266 253 252 254 250 220 258 154 215 229 216 221 195 222 240 321 280 251 250 246 257 229 247 241 242 246 213 211 247 258 243 118 226 248 233 245 238
326 322 320 319 323 327 329 316 209 190 221 223 257 265 250 243 184 213 222 225 201 218 227 215 241 238 231 242 233 239 221 233 259 262 187 227 248 247 264 194 214 227 231 243 251
325 322 318 315 316 322 327 232 213 189 212 226 208 248 134 164 27 192 201 209 234 218 233 220 238 234 232 230 252 276 287 295 293 243 217 213 243 261 277 270 220 233 231 224 228
321 323 317 311 309 308 289 241 268 316 285 225 246 260 285 308 221 212 185 200 211 224 218 240 228 250 257 261 261 259 262 274 279 291 287 275 259 256 253 257 259 248 249 242 233
315 316 314 311 308 281 222 235 252 298 281 287 206 223 233 249 251 224 191 207 213 223 233 230 243 232 228 258 266 258 260 270 273 277 269 257 266 262 254 254 256 255 241 242 246
312 312 313 321 289 277 212 228 236 237 273 221 171 208 188 200 241 242 188 223 239 239 236 248 248 259 236 237 265 269 248 253 262 267 268 267 269 258 260 232 233 230 225 231 260
309 311 309 315 302 254 80 10 353 153 275 152 144 127 166 188 126 209 175 213 237 249 276 271 288 306 275 271 268 253 273 282 275 272 273 262 264 263 259 257 251 227 210 198 129
307 309 322 216 222 259 315 309 234 229 250 154 141 182 173 211 187 160 182 208 218 240 241 255 263 274 298 322 319 265 282 273 268 270 258 256 255 258 260 261 258 240 186 184 143
308 306 307 292 289 197 244 227 223 239 236 167 165 154 197 182 183 179 195 201 220 219 237 246 243 244 238 257 268 266 237 272 257 242 251 243 244 250 274 346 324 112 124 110 117
311 311 243 231 257 263 252 222 236 272 58 64 319 246 225 188 208 188 182 212 212 245 270 268 259 235 226 237 244 246 237 235 258 266 282 304 287 281 352 315 330 246 119 121 138
311 264 237 206 243 222 252 227 267 352 18 357 326 255 237 165 347 223 229 284 297 263 270 282 279 292 245 267 281 277 275 288 309 300 284 271 275 282 284 346 212 225 177 139 194
315 288 211 146 169 213 249 240 271 51 1 299 284 340 54 327 276 302 186 297 316 337 277 296 297 299 301 298 283 265 288 306 289 279 263 261 279 298 10 1 351 288 296 168 182
256 240 113 183 183 233 246 295 78 98 342 331 341 320 331 304 226 210 235 311 13 319 307 305 275 271 287 273 271 261 251 248 239 231 257 284 271 339 133 304 337 303 287 230 239
290 247 127 189 236 229 249 310 349 293 57 260 275 280 304 356 306 316 292 314 16 323 317 11 319 273 277 291 287 263 280 240 261 248 253 274 266 309 304 325 297 340 314 280 282
280 298 142 224 249 251 301 222 119 325 339 333 321 55 354 330 318 280 321 36 73 330 24 7 309 288 275 244 252 291 284 268 333 322 253 263 265 299 346 332 314 323 314 314 314
278 267 170 203 268 290 324 275 147 130 286 326 314 327 288 275 231 281 270 162 283 189 102 85 261 249 265 292 302 261 275 289 282 257 275 256 278 279 291 215 255 261 274 284 281
249 8 32 308 62 334 334 321 287 226 91 352 261 214 356 306 300 248 265 287 234 157 173 239 249 262 276 283 284 284 284 268 254 262 261 274 273 279 288 294 281 281 254 226 248
309 347 348 278 322 277 210 229 295 66 295 276 218 310 354 306 288 300 310 311 294 279 185 177 276 266 267 268 266 263 264 266 264 264 256 263 268 274 270 276 259 273 355 319 296
346 343 279 298 256 256 292 44 74 348 279 245 354 287 283 319 336 296 286 273 254 279 290 155 228 276 276 285 298 285 257 251 256 259 265 266 278 299 289 303 17 343 307 305 322